Location: Nantong Television Tower
(32.0188°N, 120.8512°E)
Time: 15:56:46
(UTC+08:00)

Daily predictions for brighter satellites

Satellite Brightness Start Highest point End
(mag) Time Altitude Azimuth Time Altitude Azimuth Time Altitude Azimuth
Resurs 1-3 4.2 19:14:21 10° S 19:18:40 61° W 19:23:01 10° NNW
SL-24 R/B - RUBIN 2 4.4 19:15:27 10° S 19:20:15 44° ESE 19:25:43 10° NE
Cosmos 1420 Rocket 4.2 19:15:43 10° N 19:20:57 59° ENE 19:26:06 10° SSE
IUS-17 SRM-1 3.1 19:18:41 10° WSW 19:21:04 49° S 19:27:07 10° E
ERS-1 Rocket 4.2 19:17:55 10° ESE 19:21:57 25° ENE 19:26:01 10° NNE
Cosmos 2219 Rocket 2.8 19:17:10 10° SSW 19:22:45 64° WNW 19:28:21 10° NNE
GEOS 3 Rocket 3.9 19:18:06 10° SE 19:23:17 58° NE 19:28:25 10° NNW
Meteor 1-13 Rocket 4.4 19:19:41 10° S 19:25:23 56° E 19:31:00 10° NNE
SL-16 R/B 2.8 19:20:46 10° SSE 19:25:47 34° ESE 19:30:49 10° NE
ALOS 2.6 19:21:41 10° SSE 19:26:10 50° ENE 19:30:41 10° N
Cosmos 1975 2.8 19:22:17 10° N 19:26:18 71° E 19:30:16 10° SSE
ATLAS CENTAUR R/B 1.8 19:21:57 10° SSW 19:26:47 76° ESE 19:31:49 10° NNE
NOSS 0 Rocket 4.2 19:22:25 10° SSW 19:28:38 76° WNW 19:34:50 10° NNE
Cosmos 1025 Rocket 3.4 19:26:51 10° SSE 19:31:01 44° E 19:35:12 10° NNE
H-2A R/B 3.1 19:28:18 10° SSE 19:32:05 50° ENE 19:35:56 10° N
CZ-4 DEB 2.8 19:32:26 10° SSE 19:35:36 59° ENE 19:38:47 10° N
Cosmos 1242 Rocket 3.9 19:37:43 10° SSW 19:41:16 44° W 19:44:52 10° N
RESURS DK-1 3.2 19:37:33 10° NNW 19:41:33 49° WSW 19:45:32 10° S
Hubble Space Telescope 2.0 19:40:18 10° WSW 19:43:53 28° SSW 19:46:47 14° SE
BREEZE-M R/B 3.0 19:42:14 10° NW 19:45:21 73° SW 19:50:16 13° SE
Tiangong 1 2.8 19:45:16 10° W 19:47:54 24° SW 19:50:12 12° SSE
Meteor 1-19 Rocket 4.2 19:44:54 10° S 19:50:29 64° E 19:56:01 10° NNE
YAOGAN 11 4.0 19:50:43 10° SSE 19:55:06 83° ENE 19:59:28 10° N
Cosmos 494 Rocket 4.1 19:51:24 10° S 19:56:20 51° ESE 20:01:17 10° NNE
Meteor 2-4 Rocket 3.9 19:52:44 10° S 19:58:21 54° E 20:04:04 10° NNE
Cosmos 1939 Rocket 3.9 19:56:06 19° ESE 19:58:24 32° ENE 20:02:06 10° N
Cosmos 1726 Rocket 3.9 19:55:38 10° N 19:59:56 47° E 20:02:51 19° SSE
Cosmos 2333 Rocket 3.8 19:58:09 10° SW 20:03:22 38° WNW 20:08:36 10° N
CZ-2C R/B 0.4 20:05:39 31° S 20:06:35 76° W 20:08:54 10° NNW
Cosmos 2058 Rocket 3.5 20:02:36 10° N 20:06:46 41° E 20:08:55 24° SE
USA 186 3.4 20:08:18 10° SSW 20:11:01 29° W 20:13:37 10° NW
ATLAS 3B CENTAUR R/B 4.1 20:08:36 10° SW 20:12:26 21° S 20:16:33 15° SSE
Cosmos 1602 Rocket 4.5 20:11:11 25° ESE 20:12:32 30° E 20:16:27 10° NNE
Cosmos 2297 4.1 20:07:20 10° N 20:12:50 48° ENE 20:15:58 24° SE
deb Chang Zheng 4 3.8 20:08:36 10° N 20:12:59 71° WNW 20:17:20 10° SSW
USA 234 4.3 20:09:08 14° E 20:14:02 34° NE 20:19:49 10° NNW
SJ-11-01 4.2 20:12:10 18° SSE 20:15:38 83° ENE 20:20:19 10° N
Lacrosse 5 rocket 3.2 20:12:26 10° WSW 20:15:50 31° NW 20:19:24 10° NNE
Cosmos 1331 Rocket 4.2 20:14:54 10° N 20:19:59 52° ENE 20:22:24 29° SE
Okean 2 3.3 20:18:07 14° S 20:21:45 86° E 20:25:56 10° N
Cosmos 1844 Rocket 4.3 20:18:01 10° NW 20:22:51 30° WSW 20:27:38 10° SSW
Milstar 3 Cent rocket 2.6 20:17:34 10° W 20:24:36 49° SSW 20:26:46 30° SE
Cosmos 2098 Rocket 4.4 20:22:45 10° NNW 20:25:48 30° W 20:29:26 10° SSW
SPOT 5 3.0 20:24:21 32° ESE 20:25:54 46° ENE 20:30:06 10° N
Nimbus 7 Rocket 4.4 20:20:35 10° NNE 20:26:34 88° WNW 20:32:27 10° SSW
Cosmos 2285 Rocket 4.2 20:21:11 10° N 20:27:23 57° ENE 20:30:33 29° SE
COSMOS 2455 3.5 20:29:48 30° SE 20:31:02 33° ESE 20:36:19 10° NE
OTV 4 0.9 20:29:03 10° WNW 20:31:47 47° SW 20:31:47 47° SW
Atlas Centaur 2 3.2 20:25:19 10° SW 20:32:48 50° SSE 20:38:56 19° E
Cosmos 1666 2.9 20:29:43 10° N 20:33:31 50° E 20:33:59 47° ESE
Cosmos 1606 Rocket 4.4 20:30:46 10° NNW 20:35:04 50° W 20:38:15 17° SSW
SeaSat 1 2.5 20:34:46 37° SE 20:36:40 67° ENE 20:41:35 10° NNW
H-2A R/B 2.6 20:34:14 23° S 20:36:41 55° W 20:40:53 10° NNW
ATLAS CENTAUR Rocket 4.0 20:30:49 10° WSW 20:36:54 69° SSE 21:25:05 10° E
ATLAS CENTAUR Rocket 4.0 20:30:49 10° WSW 20:36:54 69° SSE 21:25:06 10° E
ATLAS CENTAUR Rocket 4.0 20:30:48 10° WSW 20:36:54 69° SSE 21:25:06 10° E
ATLAS CENTAUR Rocket 4.0 20:30:48 10° WSW 20:36:55 69° SSE 21:25:06 10° E
PSLV R/B 3.3 20:38:17 62° NE 20:38:17 62° NE 20:41:06 10° N
Delta 168 4.0 20:35:10 10° SW 20:38:25 31° S 20:38:25 31° S
Aureole 2 Rocket 2.8 20:35:37 15° SSW 20:38:59 80° WNW 20:42:50 10° NNE
Cosmos 1743 3.9 20:37:38 10° NNW 20:41:14 39° W 20:43:25 20° SSW
CZ-4B R/B 3.5 20:37:31 10° NNE 20:42:34 64° ESE 20:44:45 34° S
Cosmos 1464 Rocket 3.9 20:37:33 10° N 20:43:42 87° W 20:47:21 26° S
Meteor 1-15 Rocket 4.1 20:38:33 10° N 20:44:09 78° E 20:46:31 36° SSE
Cosmos 1626 Rocket 3.4 20:45:19 44° S 20:46:42 80° E 20:51:09 10° N
MetOp-A 4.2 20:46:30 42° SE 20:48:10 63° ENE 20:53:28 10° N
Cosmos 2278 Rocket 3.6 20:50:53 10° NW 20:55:51 32° WSW 20:59:34 16° SSW
Envisat 3.2 20:55:11 36° S 20:57:14 67° WSW 21:02:17 10° NNW
Gbstr 26 Del rocket 4.4 20:52:53 10° NW 21:00:34 83° NE 21:03:52 41° SE
Cosmos 2034 Rocket 4.0 20:54:11 10° N 21:00:34 87° W 21:03:19 37° S
Terra 3.7 21:02:04 17° ENE 21:02:04 17° ENE 21:04:40 10° NNE
DEBRIS 4.1 21:06:34 10° NW 21:08:51 28° NNW 21:08:51 28° NNW
SL-16 R/B 4.3 21:05:11 10° WSW 21:09:51 26° WNW 21:14:34 10° N
Cosmos 2369 Rocket 3.9 21:07:38 10° NNE 21:11:26 18° ENE 21:11:53 18° ENE
Cosmos 2228 3.9 21:07:34 10° NNW 21:11:47 46° W 21:12:44 39° SW
ARGOS 3.1 21:16:06 63° E 21:16:31 65° ENE 21:21:53 10° N
SL-08 RB Rocket 4.2 21:18:04 49° NE 21:18:04 49° NE 21:21:56 10° N
NOAA 11 4.2 21:17:42 60° E 21:17:59 61° ENE 21:23:19 10° N
Timation 1 Rocket 4.2 21:13:18 10° NNW 21:19:20 77° ENE 21:20:09 65° SE
H-2A R/B 3.0 21:25:26 32° NE 21:25:26 32° NE 21:29:08 10° N
CZ-4C R/B 4.4 21:31:18 45° NNE 21:31:18 45° NNE 21:34:23 10° N
SPOT 1/Viking Rocket 3.6 21:32:37 65° WSW 21:32:54 66° WSW 21:38:02 10° NNW
Cosmos 1066 Rocket 4.1 21:36:04 80° ENE 21:36:04 80° ENE 21:41:40 10° N
YAOGAN 6 4.3 21:37:03 32° WNW 21:37:03 32° WNW 21:39:31 10° NNW
Cosmos 2346 Rocket 4.5 21:47:40 67° SW 21:48:23 75° W 21:54:34 10° N
ATLAS 3B R/B 2.8 21:48:25 67° SSE 21:49:23 75° ESE 21:57:00 10° NNE
Lacrosse 4 Rocket 4.2 22:00:17 10° NNE 22:00:17 10° NNE 22:00:18 10° NNE
USA 234 3.3 21:56:29 60° SW 21:56:42 60° SW 22:03:12 10° NW
Cosmos 1943 3.5 22:05:36 61° WNW 22:05:36 61° WNW 22:11:02 10° NNE
COSMOS 2455 4.4 22:12:46 15° WSW 22:16:52 32° WNW 22:22:11 10° N
Atlas Centaur 2 3.0 22:14:12 10° WSW 22:21:39 70° SW 22:21:39 70° SW
Cosmos 1943 Rocket 3.7 22:25:24 10° N 22:28:53 28° NE 22:28:53 28° NE
Terra 3.7 22:40:56 26° NW 22:40:56 26° NW 22:43:23 10° NNW
Cosmos 2369 Rocket 3.5 22:50:16 10° NNW 22:53:40 35° NW 22:53:40 35° NW
H-2A R/B 4.3 23:06:04 16° WNW 23:06:04 16° WNW 23:07:44 10° NW
